This is the latest recevied weather packets stored in our database for station/object AK4NG. If no packets are shown the sender has not sent any weather packets the latest 10 day(s).
| Time | Temp. | Humidity | Pressure | Rain* | Wind** | Luminosity | Snow |
|---|---|---|---|---|---|---|---|
| 1777764159 | 20° C | 39% | 1015.4 hPa | 0 mm | - | 78 W/m² | - |
| 1777763856 | 20° C | 41% | 1015.3 hPa | 0 mm | - | 88 W/m² | - |
| 1777763554 | 20° C | 38% | 1015.3 hPa | 0 mm | - | 98 W/m² | - |
| 1777763252 | 20° C | 37% | 1015.3 hPa | 0 mm | - | 110 W/m² | - |
| 1777762951 | 20.56° C | 36% | 1015.4 hPa | 0 mm | - | 124 W/m² | - |
| 1777762646 | 20.56° C | 39% | 1015.5 hPa | 0 mm | - | 138 W/m² | - |
| 1777762343 | 20.56° C | 37% | 1015.3 hPa | 0 mm | - | 152 W/m² | - |
| 1777762040 | 20.56° C | 36% | 1015.1 hPa | 0 mm | - | 170 W/m² | - |
| 1777761737 | 20.56° C | 38% | 1015.2 hPa | 0 mm | - | 186 W/m² | - |
| 1777761434 | 20.56° C | 38% | 1015.2 hPa | 0 mm | - | 201 W/m² | - |
| 1777761132 | 20.56° C | 36% | 1015 hPa | 0 mm | - | 220 W/m² | - |
| 1777760830 | 20.56° C | 37% | 1015.2 hPa | 0 mm | - | 238 W/m² | - |
| 1777760526 | 20.56° C | 36% | 1015.2 hPa | 0 mm | - | 256 W/m² | - |
| 1777760222 | 21.11° C | 35% | 1015.1 hPa | 0 mm | - | 274 W/m² | - |
| 1777759919 | 21.11° C | 35% | 1014.8 hPa | 0 mm | - | 293 W/m² | - |
| 1777759615 | 21.11° C | 36% | 1015 hPa | 0 mm | - | 309 W/m² | - |
| 1777759311 | 21.67° C | 34% | 1015 hPa | 0 mm | - | 329 W/m² | - |
| 1777759008 | 21.67° C | 37% | 1014.9 hPa | 0 mm | - | 346 W/m² | - |
| 1777758705 | 21.67° C | 32% | 1014.8 hPa | 0 mm | - | 366 W/m² | - |
| 1777758403 | 21.67° C | 33% | 1014.9 hPa | 0 mm | - | 389 W/m² | - |
| 1777758099 | 21.67° C | 36% | 1014.7 hPa | 0 mm | - | 407 W/m² | - |
| 1777757797 | 21.67° C | 35% | 1014.7 hPa | 0 mm | - | 429 W/m² | - |
| 1777757494 | 22.22° C | 38% | 1014.7 hPa | 0 mm | - | 446 W/m² | - |
| 1777757193 | 21.67° C | 39% | 1014.7 hPa | 0 mm | - | 464 W/m² | - |
| 1777756891 | 21.67° C | 35% | 1014.5 hPa | 0 mm | - | 484 W/m² | - |
* Rain latest hour (hover to see other rain measurements)
** Current wind speed in m/s (hover to see current wind gust speed)